[[{"header":{"parameterUnit":"m.s-1","parameterCategory":1,"la1":30.2991,"la2":30.254,"lo1":-89.0895,"lo2":-89.0444,"dy":0.0017,"dx":0.0017,"nx":28,"ny":28,"refTime":"2025-01-01T03:00:00:Z","depth":0,"parameterNumber":2,"parameterNumberName":"U-component_of_WINDS"},"data":[0,0,0,0,0,0,0,0,0,0,0,0,0,0,0,0,0,0,0,0,0,0,0,0,0,0,0,0,0,0,0,0,0,0,0,0,0,0,0,0,0,0,0,0,0,0,0,0,0,0,0,0,0,0,0,0,0,0,0.1085,0.1086,0,0.1118,0.1118,0.1119,0.1146,0.1146,0.1146,0.1147,0.118,0.118,0.1181,0,0,0,0,0,0,0,0,0,0,0,0,0,0.1047,0.1047,0.1085,0.1086,0.1086,0.1118,0.1118,0.1119,0.1146,0.1146,0.1146,0.1147,0.1179,0.118,0.1181,0,0,0,0,0,0,0,0,0,0,0,0,0,0.107,0.1048,0.1085,0.1103,0.1105,0.1118,0.1118,0.1119,0.1146,0.1146,0.1146,0.1147,0.1179,0.118,0.1181,0.1178,0,0,0.1184,0.1184,0,0,0,0,0,0,0,0,0.1069,0.1071,0.11,0.1102,0.1104,0.1128,0.1117,0.1139,0.1145,0.113,0.1147,0.1147,0.1162,0.1165,0.117,0.118,0.1181,0.1184,0.1184,0.1185,0.1185,0,0,0,0,0,0,0,0.1067,0.107,0.1098,0.1101,0.1103,0.111,0.1114,0.1121,0.1143,0.1132,0.1134,0.1137,0.1163,0.1169,0.1171,0.1182,0.1184,0.1185,0.1185,0.1186,0.1192,0.1192,0,0,0,0,0,0,0.1063,0.1069,0.1097,0.1099,0.1087,0.111,0.1115,0.112,0.1143,0.1147,0.1137,0.1138,0.1167,0.117,0.1172,0.1171,0.1185,0.1186,0.1186,0.1192,0.1192,0.1192,0,0,0,0,0,0,0.1062,0.1065,0.1096,0.1084,0.1089,0.1111,0.1117,0.112,0.1126,0.1147,0.1151,0.1138,0.1167,0.1171,0.1177,0.1172,0.1186,0.1187,0.1193,0.1192,0.1192,0.1167,0,0,0,0,0,0,0.106,0.1064,0.1063,0.1084,0.1089,0.11,0.1116,0.1121,0.1127,0.113,0.115,0.1153,0.1168,0.1175,0.1178,0.1174,0.1188,0.1193,0.1193,0.1192,0.1169,0.1166,0.1164,0,0,0,0,0,0.1059,0.1055,0.1063,0.1066,0.1088,0.1099,0.1102,0.1119,0.1127,0.1126,0.114,0.1153,0.1172,0.1175,0.1178,0.1175,0.1194,0.1193,0.1192,0.117,0.1167,0.1164,0,0,0,0,0,0,0.1032,0.1058,0.1067,0.107,0.1082,0.1104,0.1103,0.1115,0.1126,0.1127,0.1148,0.1152,0.1156,0.1166,0.1169,0.1174,0.1185,0.1184,0.1167,0.1164,0.1162,0.1159,0.1188,0,0,0,0,0,0.1027,0.1033,0.1055,0.1055,0.1061,0.1081,0.1087,0.1099,0.1112,0.1118,0.1132,0.1145,0.1154,0.116,0.1169,0.1171,0.1176,0.117,0.1167,0.1165,0.1164,0.1167,0.1164,0.1189,0.1189,0.1189,0,0,0.1015,0.103,0.1033,0.105,0.1061,0.1068,0.1085,0.1091,0.1097,0.1119,0.1125,0.1136,0.1152,0.1156,0.1159,0.1165,0.1159,0.1164,0.1162,0.1163,0.1165,0.1163,0.1161,0.1188,0.1188,0.1188,0,0,0.0997,0.1009,0.1011,0.1022,0.1039,0.1052,0.1053,0.1073,0.1081,0.1088,0.1105,0.1112,0.1127,0.1138,0.1146,0.1134,0.1146,0.1136,0.1123,0.1125,0.1123,0.1121,0.1117,0.1116,0.1136,0.1135,0.1135,0,0.098,0.0991,0.101,0.1015,0.1023,0.1044,0.1046,0.1056,0.1075,0.108,0.1086,0.1107,0.1119,0.1126,0.1123,0.1128,0.113,0.1134,0.1122,0.112,0.1119,0.1116,0.1114,0.1134,0.1134,0.1135,0.1135,0,0.097,0.0977,0.0976,0.0995,0.1002,0.1006,0.1026,0.1031,0.1043,0.1056,0.1064,0.1079,0.1093,0.1096,0.1107,0.1105,0.1108,0.1118,0.1129,0.1115,0.1112,0.1111,0.1132,0.1133,0.1133,0.1134,0,0,0.0935,0.0964,0.0964,0.0973,0.0994,0.1,0.1005,0.1018,0.1023,0.1036,0.1041,0.1054,0.1064,0.1072,0.1086,0.1087,0.1077,0.1097,0.1098,0.1093,0.1076,0.1068,0.1066,0.1086,0.1086,0.1085,0.1075,0,0.092,0.093,0.0948,0.0953,0.096,0.0981,0.0985,0.0999,0.1011,0.102,0.1034,0.1043,0.1055,0.106,0.1063,0.1078,0.1074,0.1079,0.1091,0.1091,0.1086,0.1064,0.1056,0.1045,0.1074,0.1073,0.1073,0,0.0904,0.0916,0.0921,0.0943,0.0947,0.095,0.0965,0.0972,0.0988,0.0998,0.1008,0.1022,0.103,0.104,0.1051,0.1054,0.106,0.1068,0.1068,0.1069,0.1081,0.1065,0.1042,0.104,0.1072,0.1072,0.1072,0,0.0878,0.0896,0.0901,0.0908,0.0933,0.0936,0.0946,0.0963,0.097,0.0983,0.0988,0.1002,0.1009,0.1019,0.1037,0.1043,0.1046,0.1058,0.1054,0.1053,0.1053,0.1052,0.1029,0.1057,0.1057,0.1057,0.1057,0,0.086,0.0862,0.089,0.0893,0.0897,0.0918,0.0921,0.0934,0.0949,0.0955,0.0974,0.098,0.1004,0.1013,0.1027,0.1034,0.1037,0.1045,0.1048,0.1043,0.1042,0.1047,0.1048,0.1057,0.1057,0.1057,0.1057,0,0.0831,0.085,0.0857,0.0881,0.0887,0.0888,0.0909,0.0913,0.0927,0.0935,0.0939,0.0961,0.0973,0.0992,0.1009,0.1019,0.1023,0.1029,0.1017,0.1019,0.1014,0.1014,0.0993,0.0992,0.102,0.102,0.1019,0,0.0817,0.082,0.0844,0.085,0.086,0.0869,0.0877,0.0898,0.0905,0.0925,0.0927,0.094,0.0951,0.0969,0.0987,0.1,0.1007,0.0999,0.1009,0.1004,0.1007,0.1006,0.1007,0.0996,0.0996,0.0995,0.0995,0,0.0792,0.0801,0.0812,0.0826,0.0835,0.0847,0.086,0.0864,0.0888,0.0896,0.0908,0.0917,0.0935,0.0948,0.0964,0.0975,0.0989,0.0992,0.0992,0.0986,0.0979,0.0983,0.101,0.0992,0.0993,0.0993,0.0993,0.0993,0.077,0.0774,0.0791,0.0803,0.0815,0.0827,0.0833,0.0848,0.0859,0.0875,0.0887,0.0898,0.0916,0.0939,0.095,0.0959,0.0966,0.0965,0.0965,0.0965,0.0962,0.0978,0.0962,0.0963,0.0963,0.0963,0.0963,0,0.0746,0.0758,0.0769,0.0787,0.0796,0.0809,0.0825,0.0832,0.0841,0.0856,0.0868,0.0882,0.0895,0.0915,0.0929,0.0933,0.094,0.0936,0.0936,0.0939,0.0956,0.0955,0.0931,0.0931,0.0931,0.0931,0.0931,0.0931,0.0734,0.074,0.0752,0.0766,0.0779,0.079,0.0798,0.0809,0.0822,0.0837,0.0848,0.0861,0.0878,0.0894,0.0907,0.0913,0.0917,0.0911,0.0919,0.0934,0.0937,0.094,0.0939,0.0912,0.0912,0.09,0.09,0.09]},{"header":{"parameterUnit":"m.s-1","parameterCategory":1,"la1":30.2991,"la2":30.254,"lo1":-89.0895,"lo2":-89.0444,"dy":0.0017,"dx":0.0017,"nx":28,"ny":28,"refTime":"2025-01-01T03:00:00:Z","depth":0,"parameterNumber":3,"parameterNumberName":"V-component_of_WINDS"},"data":[0,0,0,0,0,0,0,0,0,0,0,0,0,0,0,0,0,0,0,0,0,0,0,0,0,0,0,0,0,0,0,0,0,0,0,0,0,0,0,0,0,0,0,0,0,0,0,0,0,0,0,0,0,0,0,0,0,0,-4.1152,-4.1153,0,-4.1219,-4.1219,-4.122,-4.1229,-4.1228,-4.1228,-4.1227,-4.129,-4.1292,-4.1295,0,0,0,0,0,0,0,0,0,0,0,0,0,-4.103,-4.1032,-4.1152,-4.1153,-4.1154,-4.1219,-4.1219,-4.122,-4.1229,-4.1228,-4.1228,-4.1227,-4.1289,-4.1292,-4.1295,0,0,0,0,0,0,0,0,0,0,0,0,0,-4.1088,-4.1033,-4.1152,-4.1166,-4.1168,-4.1218,-4.122,-4.1221,-4.1229,-4.1228,-4.1228,-4.1227,-4.1289,-4.1292,-4.1295,-4.1334,0,0,-4.1305,-4.1307,0,0,0,0,0,0,0,0,-4.1085,-4.1093,-4.1163,-4.1165,-4.1168,-4.1215,-4.1199,-4.1259,-4.123,-4.1206,-4.1227,-4.1226,-4.1266,-4.1271,-4.1285,-4.1337,-4.134,-4.1306,-4.1308,-4.1309,-4.131,0,0,0,0,0,0,0,-4.1081,-4.109,-4.1178,-4.1164,-4.1167,-4.1168,-4.1176,-4.1211,-4.124,-4.1208,-4.1209,-4.1217,-4.1266,-4.1282,-4.1287,-4.1341,-4.1306,-4.1309,-4.1311,-4.1312,-4.1431,-4.1432,0,0,0,0,0,0,-4.1075,-4.1086,-4.1176,-4.118,-4.1123,-4.1171,-4.1179,-4.12,-4.124,-4.1245,-4.1218,-4.1217,-4.1276,-4.1283,-4.1289,-4.1339,-4.1309,-4.1312,-4.1314,-4.1429,-4.1431,-4.1432,0,0,0,0,0,0,-4.1072,-4.1083,-4.1174,-4.1134,-4.1145,-4.1174,-4.1198,-4.1202,-4.1218,-4.1247,-4.1252,-4.1228,-4.1276,-4.1284,-4.1324,-4.1341,-4.1314,-4.1317,-4.1428,-4.143,-4.1431,-4.1438,0,0,0,0,0,0,-4.1069,-4.1082,-4.1097,-4.1134,-4.1148,-4.1208,-4.1199,-4.1204,-4.1224,-4.1224,-4.1258,-4.1263,-4.1276,-4.1319,-4.1327,-4.1345,-4.132,-4.1427,-4.1429,-4.1431,-4.1436,-4.1439,-4.1442,0,0,0,0,0,-4.1064,-4.1095,-4.1098,-4.1109,-4.1168,-4.1209,-4.1217,-4.1233,-4.1225,-4.1241,-4.126,-4.1262,-4.1338,-4.1323,-4.1332,-4.1351,-4.1426,-4.1428,-4.1431,-4.1435,-4.1439,-4.1442,0,0,0,0,0,0,-4.1057,-4.11,-4.1104,-4.1148,-4.1175,-4.1211,-4.1231,-4.1236,-4.1265,-4.1263,-4.1281,-4.1288,-4.1328,-4.1343,-4.1326,-4.1392,-4.1381,-4.1385,-4.1381,-4.1385,-4.1388,-4.1383,-4.1322,0,0,0,0,0,-4.1061,-4.1092,-4.1127,-4.1163,-4.1177,-4.1202,-4.122,-4.1231,-4.1259,-4.127,-4.1292,-4.1318,-4.1348,-4.1367,-4.1396,-4.1439,-4.1447,-4.1457,-4.146,-4.1462,-4.1466,-4.1491,-4.1496,-4.144,-4.144,-4.144,0,0,-4.1068,-4.1096,-4.1114,-4.1162,-4.1184,-4.1216,-4.1211,-4.1244,-4.1267,-4.1274,-4.1314,-4.1331,-4.1361,-4.1403,-4.1423,-4.1418,-4.1483,-4.1465,-4.1467,-4.1469,-4.1494,-4.1499,-4.1504,-4.1442,-4.1442,-4.1442,0,0,-4.1099,-4.1122,-4.1155,-4.1179,-4.1214,-4.1231,-4.1239,-4.1275,-4.1287,-4.1328,-4.1334,-4.1361,-4.1412,-4.1435,-4.1452,-4.1494,-4.1497,-4.1503,-4.1519,-4.1543,-4.1547,-4.1551,-4.1567,-4.1572,-4.1506,-4.1506,-4.1506,0,-4.1103,-4.1152,-4.1171,-4.1205,-4.1226,-4.1237,-4.127,-4.1291,-4.1333,-4.1347,-4.1341,-4.1408,-4.1428,-4.1476,-4.1487,-4.1501,-4.151,-4.1499,-4.1546,-4.155,-4.1554,-4.1569,-4.1575,-4.1507,-4.1507,-4.1507,-4.1507,0,-4.1156,-4.119,-4.1213,-4.1256,-4.128,-4.1313,-4.1336,-4.1358,-4.1367,-4.1384,-4.1426,-4.1452,-4.1487,-4.15,-4.1507,-4.1549,-4.1545,-4.1542,-4.1531,-4.1559,-4.1574,-4.158,-4.1508,-4.1508,-4.1507,-4.1507,0,0,-4.1182,-4.1238,-4.1246,-4.1267,-4.1307,-4.1333,-4.1367,-4.1404,-4.1423,-4.1452,-4.1481,-4.1525,-4.1524,-4.1544,-4.1554,-4.1576,-4.1609,-4.1571,-4.1572,-4.1577,-4.1658,-4.166,-4.1666,-4.1611,-4.1612,-4.1613,-4.1655,0,-4.1217,-4.1281,-4.13,-4.1352,-4.1385,-4.1396,-4.1426,-4.1454,-4.1471,-4.15,-4.1519,-4.1551,-4.1546,-4.1559,-4.158,-4.16,-4.1625,-4.1597,-4.1637,-4.1639,-4.163,-4.1674,-4.1676,-4.1715,-4.1661,-4.1662,-4.1663,0,-4.1267,-4.13,-4.1357,-4.1396,-4.141,-4.1436,-4.1473,-4.1501,-4.1533,-4.1544,-4.1569,-4.1578,-4.1613,-4.1601,-4.165,-4.1631,-4.1648,-4.1661,-4.1663,-4.1667,-4.1652,-4.168,-4.1727,-4.1733,-4.1672,-4.1671,-4.167,0,-4.1281,-4.134,-4.1382,-4.1399,-4.1445,-4.1464,-4.1484,-4.1515,-4.1537,-4.1568,-4.1583,-4.1617,-4.1636,-4.1662,-4.168,-4.1669,-4.1728,-4.1717,-4.1738,-4.1738,-4.175,-4.1749,-4.1801,-4.1761,-4.1761,-4.1761,-4.176,0,-4.1319,-4.1353,-4.1389,-4.1415,-4.1454,-4.1476,-4.1513,-4.1533,-4.1562,-4.1591,-4.1602,-4.1629,-4.1652,-4.1682,-4.1696,-4.1735,-4.1743,-4.1753,-4.1757,-4.1753,-4.1751,-4.1764,-4.1762,-4.1762,-4.1762,-4.1761,-4.1761,0,-4.1341,-4.1367,-4.1414,-4.1455,-4.1466,-4.1493,-4.1528,-4.1553,-4.1572,-4.1609,-4.1619,-4.1648,-4.1684,-4.1706,-4.175,-4.176,-4.1804,-4.1806,-4.1794,-4.1795,-4.1816,-4.1814,-4.1879,-4.1889,-4.1841,-4.1841,-4.1842,0,-4.1364,-4.1391,-4.1436,-4.1458,-4.1479,-4.1513,-4.1537,-4.1559,-4.1583,-4.1623,-4.1644,-4.1681,-4.1712,-4.1769,-4.1793,-4.1828,-4.1831,-4.1851,-4.1836,-4.1832,-4.1832,-4.1831,-4.1834,-4.1854,-4.1854,-4.1855,-4.1855,0,-4.1401,-4.1414,-4.1448,-4.1487,-4.1516,-4.1547,-4.1578,-4.1595,-4.1622,-4.1648,-4.1687,-4.1711,-4.1759,-4.1796,-4.1833,-4.1852,-4.1858,-4.186,-4.1867,-4.1863,-4.1855,-4.1861,-4.1801,-4.1858,-4.1858,-4.1857,-4.1857,-4.1857,-4.1425,-4.1451,-4.1488,-4.1526,-4.1552,-4.1582,-4.1609,-4.1632,-4.1665,-4.1708,-4.1719,-4.1759,-4.1792,-4.1843,-4.1863,-4.1895,-4.1891,-4.1901,-4.1903,-4.1906,-4.1907,-4.185,-4.1901,-4.1901,-4.1901,-4.1901,-4.1901,0,-4.1464,-4.1489,-4.1524,-4.1569,-4.16,-4.1606,-4.1641,-4.1665,-4.1702,-4.1733,-4.1764,-4.1809,-4.1846,-4.1874,-4.1911,-4.1931,-4.1935,-4.194,-4.1939,-4.1944,-4.1907,-4.1898,-4.1937,-4.1937,-4.1937,-4.1937,-4.1937,-4.1937,-4.1488,-4.1532,-4.1549,-4.1607,-4.1631,-4.1673,-4.1693,-4.172,-4.1746,-4.1796,-4.1828,-4.1847,-4.1877,-4.1917,-4.1951,-4.1958,-4.1972,-4.1977,-4.1984,-4.195,-4.1946,-4.1942,-4.1934,-4.1979,-4.1979,-4.2018,-4.2019,-4.2019]}]]